Temperature
17 16 15 14 14 14 13 13 13 13 12 12 12 11 11 11 11 11 11 11 11 11 11 11 11 11 11 12 12 12 13 13 13 12 12 12 12 12 12 13 13 13 13
17 16 15 14 14 14 13 13 13 13 12 12 11 11 11 11 11 11 10 10 11 11 11 11 11 11 11 11 12 12 12 13 12 12 12 12 11 11 12 12 12 12 12
17 16 15 15 14 13 13 13 13 13 12 12 11 11 11 10 10 10 10 10 10 10 10 10 10 11 11 11 11 12 12 13 12 12 12 11 11 11 11 11 11 11 12
17 16 15 15 14 13 13 13 13 13 12 11 11 11 10 10 10 10 10 10 10 10 10 10 10 10 11 11 11 12 13 12 12 12 11 11 10 10 10 11 11 11 11
17 16 15 15 14 13 13 13 13 12 12 11 11 10 10 10 10 10 10 10 10 10 10 10 10 10 11 11 12 12 12 12 12 12 11 11 10 10 10 10 11 11 11
17 15 15 15 14 13 13 13 12 12 11 11 11 10 10 10 10 10 10 10 10 10 10 10 11 11 11 11 12 12 12 12 12 11 11 11 10 10 10 10 11 11 11
17 15 15 15 14 13 13 12 12 11 11 11 10 10 10 10 10 10 10 10 10 10 10 10 10 11 11 11 11 11 12 12 12 12 11 11 11 11 10 10 10 11 11
16 15 15 15 14 13 13 12 12 11 11 10 10 10 10 10 10 10 10 10 10 10 10 10 10 10 10 11 11 11 11 11 11 11 11 11 11 11 10 10 10 10 10
16 15 15 14 13 13 12 12 11 11 11 10 10 10 10 10 9 10 10 10 10 10 10 10 10 10 10 10 10 10 11 11 10 10 11 11 11 11 10 9 9 9 9
16 15 14 13 13 12 12 12 11 11 10 10 10 10 10 10 9 10 10 10 10 9 9 9 9 9 9 10 10 10 10 10 9 9 10 10 11 11 9 9 9 9 9
16 15 14 13 13 12 12 11 11 11 10 10 10 10 9 9 9 9 9 9 9 9 9 9 9 9 9 9 9 9 9 8 8 9 9 10 10 10 9 9 8 8 8
17 16 15 14 13 12 12 11 11 10 10 10 9 9 9 9 9 9 9 9 9 9 9 9 9 8 8 8 8 8 8 8 8 8 8 9 9 9 9 8 8 8 8
17 16 15 14 13 13 12 11 11 10 10 10 9 9 9 9 9 8 8 8 8 8 8 8 8 8 7 7 7 7 7 7 7 7 8 9 9 9 9 9 8 8 8
17 16 15 14 14 13 12 12 11 11 10 10 9 9 9 9 9 8 8 8 8 8 8 8 8 7 7 7 7 7 7 7 7 7 8 8 9 9 9 9 8 8 7
17 16 16 15 14 13 12 12 11 11 10 10 9 9 9 9 9 9 8 8 8 8 8 8 8 7 7 7 7 7 7 7 7 7 7 8 9 9 9 9 8 8 7
17 16 16 15 14 13 12 12 11 11 10 10 10 9 9 9 9 9 9 8 8 8 8 8 7 7 7 7 7 7 7 7 7 7 7 8 8 9 9 8 8 8 7
17 16 16 15 14 13 12 12 11 11 10 10 10 9 9 9 9 9 9 8 8 8 8 8 7 7 7 7 7 7 7 7 8 7 8 8 8 8 8 8 8 8 7
16 16 16 15 14 13 12 12 11 11 10 10 10 9 9 9 9 9 9 8 8 8 8 8 7 7 7 7 7 7 7 8 8 8 8 8 7 8 7 8 7 7 7
17 16 16 15 14 14 13 12 11 11 10 10 10 9 9 9 9 9 9 9 8 8 8 8 7 7 7 7 7 7 7 8 8 8 7 7 7 7 7 7 7 7 7
17 16 16 15 14 14 13 12 11 11 10 10 10 9 9 9 9 9 9 9 8 8 8 7 7 7 7 7 7 7 8 8 8 7 7 7 7 7 7 7 6 6 6
17 16 15 15 14 14 13 12 11 11 10 10 10 9 9 9 9 9 9 9 8 8 8 7 7 7 7 7 7 7 7 7 7 7 7 6 6 6 6 6 6 6 6
16 16 15 15 14 14 13 12 12 11 10 10 10 9 9 9 9 9 9 8 8 8 8 7 7 7 6 6 6 5 6 6 6 6 6 6 6 5 5 5 5 5 5
16 16 15 15 14 14 13 12 12 11 10 10 10 9 9 9 9 9 9 8 8 8 7 7 7 7 6 6 6 5 5 5 5 5 5 5 5 4 4 4 5 5 4
16 16 15 15 14 14 13 12 12 11 11 10 10 10 9 9 9 9 9 8 8 8 7 7 7 6 6 5 5 5 4 4 3 3 4 4 3 3 3 3 4 4 4
15 15 15 14 14 13 13 12 12 11 10 10 10 10 9 9 9 9 9 8 8 7 7 7 6 6 6 5 5 4 4 3 3 2 2 3 3 2 2 2 2 3 3
15 14 14 14 13 13 12 12 11 11 11 10 10 10 10 9 9 9 8 8 8 7 7 6 6 6 6 5 5 4 3 3 2 1 1 2 2 2 1 1 1 1 1
Wind_Speed
11 16 16 15 13 13 12 12 12 12 12 12 13 13 13 13 14 14 14 14 15 15 16 16 16 17 17 18 18 18 18 18 19 19 20 20 19 19 19 18 16 16 19
14 18 17 16 14 13 13 12 12 12 12 12 13 13 13 13 13 13 14 14 14 15 15 15 15 16 16 16 16 16 17 17 17 17 17 17 18 18 18 18 18 16 17
17 18 18 16 15 14 13 13 12 12 12 11 12 12 12 12 12 13 13 14 14 14 14 14 14 15 15 15 15 16 16 15 15 14 14 14 15 17 17 17 17 16 16
18 18 18 18 16 15 14 13 13 12 11 11 12 12 12 12 12 12 13 13 13 13 13 13 13 14 14 14 14 14 14 14 13 11 11 12 12 15 15 14 14 14 14
17 17 18 18 17 15 14 13 13 12 11 11 11 11 11 11 11 12 12 12 12 12 13 13 13 13 13 13 13 13 13 12 10 10 10 10 11 12 12 12 12 12 12
17 17 18 19 17 16 15 14 12 11 11 11 11 11 11 11 11 11 11 11 11 11 11 11 11 11 12 12 12 12 12 11 8 9 9 9 9 10 10 10 10 10 10
16 16 18 18 17 16 15 14 12 11 11 11 10 10 10 10 10 10 10 10 10 10 10 10 10 10 10 10 10 11 10 9 8 8 7 7 9 10 9 8 8 8 8
16 16 17 18 17 16 15 14 12 11 11 10 10 9 9 9 9 9 8 8 8 8 8 8 8 8 8 9 9 9 8 7 6 7 6 7 9 9 8 7 7 7 7
16 15 16 18 17 16 15 14 13 11 11 10 9 9 8 8 7 7 7 6 6 6 6 6 6 6 6 7 7 7 7 5 5 5 6 6 9 10 9 9 8 8 8
14 14 15 16 16 16 16 15 13 12 11 10 9 9 8 7 6 6 4 4 3 3 3 3 4 5 5 6 6 6 5 5 5 5 5 6 9 11 10 10 10 10 9
14 14 14 15 15 15 14 15 14 13 11 11 10 10 7 5 5 4 3 1 1 2 2 3 4 5 3 1 3 5 5 5 6 5 5 7 10 11 11 11 11 11 11
17 16 14 14 15 14 13 13 12 12 12 10 9 9 7 5 3 2 3 2 2 2 2 2 3 2 5 4 3 4 5 6 6 6 5 7 10 12 12 12 12 12 12
16 16 15 14 15 14 12 12 11 10 10 9 9 8 6 5 4 4 3 3 3 3 3 2 4 4 5 6 7 6 7 8 7 7 6 6 10 12 13 13 13 13 13
15 17 16 16 15 15 13 12 11 10 9 9 9 9 7 5 4 4 4 3 3 3 3 4 5 5 6 7 7 8 8 7 8 8 7 6 10 11 12 12 13 13 13
15 16 17 16 15 15 13 11 11 10 10 10 9 9 8 6 5 5 5 4 4 4 4 5 6 6 7 7 7 8 9 10 10 9 8 5 8 10 11 11 11 11 11
16 16 16 17 17 16 13 11 11 11 10 10 9 9 9 7 6 5 5 5 5 5 5 5 6 6 6 7 8 9 10 10 9 9 9 7 4 6 7 8 8 9 9
15 15 17 17 17 16 15 14 11 11 10 10 9 10 10 9 7 7 5 5 4 4 5 5 5 6 6 6 8 9 9 9 9 9 8 7 4 2 4 6 7 8 9
13 15 16 14 17 17 15 13 11 11 11 10 9 9 9 9 8 7 5 4 3 3 3 4 4 5 5 6 7 7 7 7 9 8 6 4 3 2 2 4 6 8 10
13 14 16 17 17 17 15 13 12 10 10 9 8 7 7 7 7 6 4 3 3 2 2 2 4 5 6 6 7 7 7 7 6 5 4 2 1 2 3 2 4 6 10
12 13 15 16 16 15 13 10 8 8 8 8 7 7 7 7 6 5 4 4 3 2 2 2 3 3 4 6 7 7 7 5 4 3 2 2 2 3 4 5 6 7 10
11 13 15 16 16 14 12 11 10 9 7 6 6 7 7 6 6 6 4 4 3 2 2 2 2 3 4 5 6 6 5 3 3 2 2 3 4 5 5 6 8 10 11
12 14 15 16 16 16 13 11 9 8 6 6 6 6 7 7 6 5 5 4 3 2 2 1 1 2 2 3 4 5 4 3 0 3 5 5 6 6 6 8 11 12 12
12 13 13 15 16 16 14 10 8 6 5 5 6 5 6 7 7 6 5 4 4 3 2 1 1 2 3 2 3 3 4 4 7 5 5 6 6 7 8 10 12 13 13
11 11 13 14 15 15 15 13 14 11 9 9 8 7 7 7 7 7 6 5 4 3 3 2 1 1 3 3 2 3 4 4 5 6 5 6 7 9 10 10 12 13 13
10 10 11 13 14 15 15 15 15 12 9 8 8 9 8 7 7 7 7 6 5 3 3 2 2 2 3 4 4 4 5 5 7 6 9 10 9 9 9 10 11 12 13
10 10 11 13 14 14 14 14 14 13 12 11 11 10 8 6 6 7 6 5 5 4 3 3 3 3 3 4 4 4 5 5 6 7 10 13 13 11 11 10 10 11 12
Wind_Direction
164 162 162 156 149 138 128 122 115 105 100 97 93 88 81 76 72 69 66 64 63 61 60 59 58 58 56 54 54 54 54 52 49 47 46 49 54 54 51 46 45 48 46
157 161 161 157 150 141 131 123 116 112 106 101 94 88 82 78 76 72 70 67 65 63 62 61 58 57 57 57 56 56 57 55 51 48 47 49 50 51 50 48 47 48 47
154 158 162 161 154 146 137 128 123 118 111 105 97 91 87 83 79 76 73 70 68 66 63 62 61 59 57 57 57 57 56 54 50 47 49 48 49 50 48 46 45 45 45
156 159 161 158 155 151 143 136 129 123 117 111 103 97 94 89 84 79 76 73 70 69 67 64 62 60 58 57 58 57 55 51 46 43 48 44 45 47 47 45 43 43 42
158 160 156 158 157 152 147 142 135 128 122 117 108 103 99 93 88 83 79 75 72 69 67 65 62 59 57 56 56 56 53 47 43 47 46 39 40 39 42 41 39 38 37
160 161 157 161 159 154 150 146 140 135 129 121 114 110 104 98 92 87 82 78 74 71 68 65 62 59 55 53 53 52 49 39 37 44 38 30 29 25 30 31 30 29 28
161 162 160 163 162 158 155 151 146 142 135 128 121 116 110 104 99 93 87 81 76 71 67 64 61 58 54 52 50 48 44 34 35 36 29 25 16 6 13 17 15 14 16
163 164 161 165 165 162 160 156 152 149 143 136 131 123 117 112 107 100 92 84 77 71 65 61 57 54 51 48 45 41 36 19 26 28 22 17 4 351 356 358 354 352 352
167 167 167 169 170 168 164 160 158 157 150 144 140 134 127 122 116 106 98 90 81 73 65 57 51 47 42 37 34 29 24 0 358 12 4 5 353 340 341 341 338 335 333
172 175 174 175 174 174 171 165 161 162 159 154 148 141 137 137 131 119 118 97 79 66 54 43 36 34 32 25 18 11 351 302 355 349 349 357 340 332 330 329 327 325 323
181 182 181 180 178 178 174 167 167 168 167 162 157 151 161 162 150 145 100 85 14 6 4 11 16 23 2 13 6 338 301 329 335 331 335 347 329 325 322 319 317 315 313
187 187 186 185 181 179 175 174 177 177 175 180 175 173 179 176 177 185 152 214 283 313 304 336 333 305 296 320 323 286 316 323 318 320 329 336 324 320 317 315 312 310 308
188 188 190 188 185 183 180 181 180 179 180 184 183 182 184 188 198 214 220 214 245 273 283 284 282 311 318 324 319 316 317 315 311 312 314 331 319 317 315 313 311 308 306
191 192 192 190 189 189 187 185 185 183 183 185 187 188 191 199 213 223 235 248 260 265 276 280 293 302 305 306 307 309 308 304 304 306 309 320 314 315 314 312 311 310 309
196 195 195 193 192 191 191 189 190 190 189 190 189 196 203 208 217 226 235 241 259 273 275 280 287 295 297 302 301 302 303 304 302 301 301 307 311 314 315 316 316 316 316
199 196 194 196 196 193 194 194 194 193 191 194 195 201 208 215 222 229 238 243 252 260 272 278 284 291 296 300 302 303 302 302 298 300 302 303 300 319 326 330 333 334 332
202 197 195 195 197 196 197 197 195 194 193 197 200 204 208 214 222 229 239 243 249 254 263 275 282 285 293 298 299 304 304 302 301 299 302 304 308 333 348 353 352 350 349
204 199 195 192 196 197 197 195 195 196 196 200 203 204 209 216 221 227 237 242 241 244 259 275 288 293 298 303 307 308 302 301 298 303 299 296 307 325 18 24 3 358 349
204 199 194 192 194 194 194 193 194 193 195 198 200 201 205 213 216 221 228 233 222 224 244 273 288 302 306 311 310 306 304 302 305 296 289 279 313 324 331 359 339 342 339
202 197 192 190 190 188 187 187 184 186 188 190 190 193 197 201 203 204 203 205 202 214 245 269 289 305 311 317 309 302 300 303 295 290 276 252 284 309 318 322 319 324 323
194 193 190 186 185 182 182 183 183 185 182 181 180 185 186 187 183 185 186 186 195 218 243 274 297 302 316 327 312 312 302 282 288 268 269 282 291 298 301 311 319 322 316
190 189 186 186 183 183 184 183 185 176 176 172 165 171 176 177 173 174 184 184 183 190 198 212 271 300 319 335 328 322 320 297 242 270 289 291 297 296 297 305 315 315 312
188 186 183 183 181 183 178 169 155 148 148 164 169 166 168 171 170 172 177 177 173 187 190 193 235 285 305 315 324 320 317 313 318 288 285 292 296 297 301 306 307 308 307
184 180 179 177 179 179 176 176 175 180 184 186 176 167 163 168 168 167 168 169 169 174 177 181 214 264 284 296 296 276 282 294 296 304 292 287 293 296 297 300 303 304 302
173 173 173 173 176 177 181 182 184 187 183 168 163 163 163 161 163 163 165 167 169 174 182 187 210 242 264 281 285 284 278 275 267 276 295 302 299 292 294 295 296 296 297
167 168 170 173 175 178 181 183 187 182 171 164 168 168 168 162 163 166 168 172 177 182 189 203 222 241 258 265 269 268 272 275 281 279 286 298 301 302 299 292 289 290 292
Height
1552 1553 1555 1557 1558 1560 1560 1561 1561 1561 1561 1561 1560 1559 1559 1558 1558 1557 1556 1556 1555 1554 1554 1553 1553 1552 1551 1550 1549 1548 1548 1548 1547 1547 1546 1545 1545 1544 1543 1542 1542 1542 1541
1552 1554 1555 1557 1559 1560 1561 1561 1562 1562 1562 1561 1561 1561 1560 1559 1559 1558 1557 1557 1556 1555 1554 1554 1553 1552 1552 1551 1550 1549 1549 1548 1548 1548 1547 1547 1546 1545 1544 1543 1542 1542 1541
1552 1554 1555 1557 1559 1560 1561 1562 1562 1562 1562 1562 1562 1561 1561 1560 1560 1559 1558 1558 1557 1556 1555 1555 1554 1553 1552 1551 1551 1550 1549 1549 1549 1549 1548 1548 1547 1546 1545 1544 1543 1543 1542
1553 1554 1556 1557 1559 1560 1561 1562 1563 1563 1563 1563 1562 1562 1562 1561 1561 1560 1560 1559 1558 1557 1557 1556 1555 1554 1554 1553 1552 1551 1550 1550 1550 1549 1549 1549 1548 1547 1546 1545 1544 1543 1542
1553 1555 1556 1557 1559 1560 1561 1562 1563 1563 1563 1563 1563 1563 1563 1562 1562 1561 1561 1560 1559 1559 1558 1557 1557 1556 1555 1554 1553 1552 1552 1551 1551 1550 1550 1549 1549 1548 1547 1546 1545 1544 1543
1553 1555 1556 1558 1559 1560 1562 1563 1563 1564 1564 1564 1564 1564 1563 1563 1563 1562 1562 1561 1561 1560 1559 1559 1558 1557 1556 1555 1555 1554 1553 1552 1552 1551 1550 1550 1549 1548 1548 1547 1546 1545 1544
1554 1555 1556 1558 1559 1561 1562 1563 1563 1564 1564 1564 1564 1564 1564 1564 1563 1563 1563 1562 1562 1561 1561 1560 1559 1558 1557 1557 1556 1555 1554 1553 1552 1552 1551 1550 1549 1549 1548 1547 1546 1545 1544
1554 1555 1556 1557 1559 1561 1562 1563 1563 1564 1564 1565 1565 1565 1565 1564 1564 1564 1564 1563 1563 1562 1562 1561 1560 1559 1559 1558 1557 1556 1555 1554 1553 1552 1551 1551 1550 1549 1549 1548 1547 1546 1545
1553 1555 1556 1557 1559 1560 1562 1562 1563 1564 1565 1565 1565 1565 1565 1565 1565 1565 1564 1564 1564 1563 1563 1562 1561 1560 1559 1558 1557 1556 1555 1554 1554 1552 1551 1550 1549 1549 1548 1547 1546 1546 1544
1552 1554 1556 1557 1559 1560 1561 1562 1563 1564 1564 1565 1565 1565 1565 1565 1565 1565 1565 1565 1564 1564 1563 1562 1562 1561 1559 1558 1557 1556 1555 1554 1553 1552 1551 1550 1548 1547 1547 1546 1545 1544 1544
1550 1552 1554 1556 1558 1559 1561 1561 1562 1563 1564 1565 1565 1565 1565 1567 1567 1566 1565 1565 1564 1564 1563 1562 1561 1560 1559 1558 1557 1555 1554 1554 1553 1551 1549 1548 1547 1546 1545 1544 1543 1543 1542
1548 1550 1552 1554 1556 1558 1559 1560 1562 1563 1563 1564 1565 1565 1566 1566 1566 1566 1565 1564 1564 1563 1563 1562 1561 1560 1559 1559 1557 1555 1555 1553 1552 1550 1548 1546 1545 1543 1543 1542 1541 1540 1539
1546 1548 1549 1551 1553 1556 1557 1559 1560 1562 1562 1564 1565 1565 1565 1565 1565 1565 1565 1565 1564 1563 1563 1562 1561 1560 1559 1557 1556 1555 1553 1551 1550 1548 1546 1544 1542 1541 1540 1539 1538 1537 1537
1544 1545 1547 1549 1551 1553 1555 1557 1558 1560 1561 1562 1563 1564 1564 1564 1564 1565 1564 1564 1563 1563 1562 1561 1560 1559 1558 1556 1555 1553 1552 1550 1548 1546 1544 1541 1540 1538 1537 1536 1535 1534 1533
1540 1542 1544 1546 1548 1551 1553 1555 1556 1558 1559 1560 1561 1562 1563 1563 1563 1563 1563 1563 1562 1562 1561 1560 1559 1558 1556 1555 1553 1551 1549 1548 1546 1544 1541 1538 1537 1535 1534 1533 1532 1531 1530
1536 1539 1541 1543 1545 1547 1550 1552 1554 1556 1557 1559 1559 1560 1561 1562 1562 1562 1562 1561 1561 1560 1559 1558 1557 1556 1554 1553 1551 1549 1547 1545 1543 1541 1538 1536 1534 1532 1531 1530 1529 1528 1527
1532 1535 1537 1539 1542 1544 1547 1550 1552 1553 1555 1557 1558 1558 1559 1560 1560 1560 1560 1560 1559 1558 1557 1556 1555 1554 1552 1550 1549 1547 1544 1542 1540 1538 1536 1534 1532 1530 1529 1527 1526 1525 1524
1528 1530 1533 1535 1538 1541 1544 1546 1549 1551 1553 1554 1556 1556 1557 1558 1558 1558 1558 1558 1557 1556 1555 1554 1553 1552 1550 1548 1546 1544 1542 1539 1537 1535 1533 1531 1530 1528 1527 1525 1524 1522 1521
1523 1525 1528 1531 1534 1537 1540 1543 1546 1548 1550 1552 1553 1554 1555 1555 1556 1556 1556 1556 1555 1554 1553 1552 1551 1550 1548 1546 1544 1541 1539 1537 1534 1532 1530 1529 1528 1527 1525 1523 1521 1520 1518
1518 1520 1523 1526 1530 1533 1536 1540 1542 1545 1547 1549 1550 1551 1553 1553 1554 1554 1554 1553 1553 1552 1551 1550 1549 1547 1545 1543 1541 1539 1536 1533 1531 1530 1529 1528 1526 1524 1523 1521 1519 1517 1514
1513 1516 1518 1521 1525 1528 1531 1534 1538 1541 1543 1546 1547 1549 1550 1551 1551 1551 1551 1551 1550 1550 1549 1548 1546 1545 1543 1541 1539 1536 1534 1531 1529 1528 1528 1526 1525 1522 1520 1518 1516 1513 1510
1508 1511 1514 1517 1520 1524 1527 1531 1534 1538 1540 1542 1544 1546 1547 1548 1548 1548 1548 1548 1548 1547 1546 1545 1544 1543 1541 1539 1538 1535 1533 1532 1529 1527 1525 1524 1522 1520 1517 1515 1512 1508 1505
1503 1506 1509 1512 1516 1520 1523 1527 1531 1534 1537 1539 1541 1542 1544 1545 1545 1546 1546 1546 1545 1545 1544 1543 1542 1541 1540 1538 1536 1536 1534 1531 1528 1524 1522 1520 1518 1516 1513 1510 1506 1503 1500
1499 1502 1505 1509 1512 1516 1520 1523 1527 1530 1532 1535 1537 1539 1541 1542 1542 1543 1543 1543 1543 1542 1541 1540 1540 1538 1537 1536 1534 1532 1532 1529 1526 1522 1519 1516 1513 1510 1507 1504 1501 1497 1494
1495 1498 1502 1505 1509 1512 1516 1520 1524 1527 1530 1532 1534 1536 1537 1538 1539 1540 1540 1540 1540 1539 1539 1538 1537 1536 1534 1533 1531 1529 1527 1525 1523 1520 1515 1512 1509 1506 1502 1498 1494 1491 1488
1491 1495 1499 1502 1506 1509 1513 1517 1520 1523 1526 1528 1531 1533 1534 1535 1536 1537 1537 1537 1537 1536 1536 1535 1534 1532 1531 1529 1528 1526 1524 1522 1520 1517 1512 1507 1503 1500 1496 1492 1488 1485 1482